Regional Weather Roundup
Issued by NWS Portland, ME

Current Version | Previous Version | Text Only | Print | Product List | Glossary Off
Versions: 1 2 3 4 5 6 7 8 9 10 11 12 13 14 15 16 17 18 19 20 21 22 23 24 25 26 27 28 29 30 31 32 33 34 35 36 37 38 39 40 41 42 43 44 45 46 47 48 49 50
743 ASUS41 KGYX 240910 RWRGYX WEATHER ROUNDUP FOR MAINE AND NEW HAMPSHIRE NATIONAL WEATHER SERVICE GRAY ME 500 AM EDT THU AUG 24 2017 MEZ002-005-006-010-012-015-018-020-021-024-026-027-029-241000- MAINE CITY SKY/WX TMP DP RH WIND PRES REMARKS PORTLAND CLEAR 55 52 89 CALM 29.85R SANFORD CLEAR 49 48 97 CALM 29.86R BAR HARBOR CLEAR 52 51 97 N6 29.83R WISCASSET CLEAR 52 51 97 CALM 29.85R ROCKLAND CLEAR 52 50 93 CALM 29.82S FRYEBURG MOCLDY 51 51 100 CALM 29.86R LEWISTONAUBURN CLEAR 50 49 96 CALM 29.85R AUGUSTA CLEAR 58 52 80 CALM 29.84S WATERVILLE CLEAR 53 52 96 CALM 29.81S BANGOR PTCLDY 54 51 90 CALM 29.82R GREENVILLE N/A 52 50 93 CALM 29.81R MILLINOCKET PTCLDY 55 51 86 CALM 29.82R HOULTON CLEAR 52 50 93 S6 29.78R PRESQUE ISLE CLEAR 52 50 93 VRB3 29.78R FRENCHVILLE CLEAR 52 48 86 NW3 29.73R CARIBOU PTCLDY 53 49 86 SW6 29.75R $$ NHZ002-005-008-009-011-012-014-241000- NEW HAMPSHIRE CITY SKY/WX TMP DP RH WIND PRES REMARKS PORTSMOUTH PTCLDY 56 54 93 SW5 29.85R ROCHESTER CLEAR 59 50 72 NW5 29.86R NASHUA CLEAR 54 53 97 NW3 29.88R MANCHESTER CLEAR 58 53 84 S3 29.86R CONCORD CLEAR 52 50 93 NE3 29.88R LACONIA PTCLDY 54 52 93 SW3 29.88R PLYMOUTH FAIR 47 46 97 CALM 29.88R FOG BERLIN FOG 46 44 93 CALM 29.87S VSB 1/4 WHITEFIELD CLEAR 46 43 89 CALM 29.87R JAFFREY CLEAR 55 54 96 S5 29.91R KEENE N/A N/A N/A N/A MISG N/A LEBANON MOCLDY 51 50 96 S5 29.87S MT WASHINGTON FOG 39 39 100 W29 N/A VSB 0 $$ VTZ005-007-008-241000- VERMONT CITY SKY/WX TMP DP RH WIND PRES REMARKS ST JOHNSBURY N/A 52 52 100 MISG 29.86R MONTPELIER CLEAR 50 50 100 CALM 29.91R BURLINGTON MOCLDY 57 54 89 CALM 29.86R $$ MAZ007-012-024-CTZ003-RIZ002-NYZ038-NYZ072-241000- SOUTHERN NEW ENGLAND AND NY CITY SKY/WX TMP DP RH WIND PRES REMARKS BOSTON CLEAR 65 52 62 W9 29.88R WORCESTER CLEAR 58 48 69 W8 29.90R NANTUCKET CLEAR 64 60 87 NW7 29.86R PROVIDENCE CLEAR 59 56 89 SW3 29.89R HARTFORD CLEAR 56 54 93 W3 29.90R ALBANY PTCLDY 58 53 84 NW5 29.91R NEW YORK CITY PTCLDY 70 57 63 NW9 29.88R $$ ANZ081-ANZ082-ANZ150-NHZ014-MEZ023>029-241000- COASTAL MARINE OBSERVATIONS STATION/POSITION TIME TEMP WIND PRES WAVE AIR SEA DIR/SP/G HT/PER (UTC) (F) (DEG/KT/KT) (MB) (FT/S) MOUNT DESERT ROC 0900 62 210/ 12/ 13 1010.2R MATINICUS ROCK 0800 63 230/ 6/ 6 1009.4R ISLE OF SHOALS 0800 64 280/ 12/ 12 1010.1R JEFFREYS LEDGE 0806 64 N/A 2/ 8 CASHES LEDGE BUO 0750 67 68 1009.7 3/ 7 GEORGES BANK BUO 0750 67 65 1009.0 5/ 7 $$ .............KEY.............. WCI - WIND CHILL TC - TEMPERATURE IN CELSIUS VSB - VISIBILITY IN MILES HX - HEAT INDEX FAIR- INDICATES FEW OR NO CLOUDS BELOW 12,000 FT, WITH NO SIGNIFICANT WEATHER AND/OR OBSTRUCTIONS TO VISIBILITY.

USA.gov is the U.S. government's official web portal to all federal, state and local government web resources and services.